This is the latest recevied weather packets stored in our database for station/object ALANSN-2. If no packets are shown the sender has not sent any weather packets the latest 10 day(s).
| Time | Temp. | Humidity | Pressure | Rain* | Wind** | Luminosity | Snow |
|---|---|---|---|---|---|---|---|
| 1787786223 | 21.67° C | 89% | 1019.9 hPa | 0 mm | - | 35 W/m² | - |
| 1787785920 | 21.67° C | 86% | 1020.1 hPa | 0 mm | - | 49 W/m² | - |
| 1787785620 | 21.67° C | 86% | 1020.2 hPa | 0 mm | - | 49 W/m² | - |
| 1787785320 | 22.22° C | 84% | 1020.1 hPa | 0 mm | - | 88 W/m² | - |
| 1787785020 | 22.78° C | 83% | 1020 hPa | 0 mm | - | 154 W/m² | - |
| 1787784720 | 22.78° C | 82% | 1020.1 hPa | 0 mm | - | 182 W/m² | - |
| 1787784420 | 22.78° C | 83% | 1019.9 hPa | 0 mm | - | 193 W/m² | - |
| 1787784120 | 22.78° C | 81% | 1019.7 hPa | 0 mm | - | 177 W/m² | - |
| 1787783821 | 23.33° C | 81% | 1020 hPa | 0 mm | - | 187 W/m² | - |
| 1787783519 | 23.33° C | 80% | 1019.7 hPa | 0 mm | - | 216 W/m² | - |
| 1787783221 | 23.33° C | 80% | 1019.9 hPa | 0 mm | - | 247 W/m² | - |
| 1787782920 | 22.78° C | 79% | 1019.7 hPa | 0 mm | - | 234 W/m² | - |
| 1787782620 | 22.78° C | 80% | 1019.7 hPa | 0 mm | - | 232 W/m² | - |
| 1787782319 | 23.33° C | 81% | 1019.9 hPa | 0 mm | - | 271 W/m² | - |
| 1787782019 | 23.33° C | 81% | 1019.9 hPa | 0 mm | - | 271 W/m² | - |
| 1787781720 | 23.33° C | 82% | 1019.9 hPa | 0 mm | - | 270 W/m² | - |
| 1787781420 | 22.78° C | 81% | 1019.9 hPa | 0 mm | - | 302 W/m² | - |
| 1787781119 | 22.78° C | 81% | 1019.9 hPa | 0 mm | - | 302 W/m² | - |
| 1787780820 | 23.33° C | 81% | 1019.6 hPa | 0 mm | - | 301 W/m² | - |
| 1787780520 | 22.78° C | 83% | 1019.7 hPa | 0 mm | - | 312 W/m² | - |
| 1787780220 | 22.78° C | 83% | 1019.7 hPa | 0 mm | - | 312 W/m² | - |
| 1787779919 | 22.78° C | 82% | 1019.5 hPa | 0 mm | - | 331 W/m² | - |
| 1787779618 | 22.78° C | 82% | 1019.3 hPa | 0 mm | - | 380 W/m² | - |
| 1787779319 | 22.78° C | 82% | 1019.3 hPa | 0 mm | - | 380 W/m² | - |
| 1787779020 | 22.78° C | 82% | 1019.6 hPa | 0 mm | - | 384 W/m² | - |
* Rain latest hour (hover to see other rain measurements)
** Current wind speed in m/s (hover to see current wind gust speed)